Starlink 32492

operational
NORAD ID: 62050 Int'l Des: 2024-216 Owner: SPXS Country: US Constellation: starlink
LEOCIRCULAR

关于 Starlink 32492

正在加载描述...

实时位置

正在加载3D地球...

即将过境

高度历史

Altitude vs Time

uPlot chart will show altitude changes over time

两行轨道根数

1 62050U 24216U 25308.52964020 .00026040 00000-0 95192-3 0 9995
2 62050 42.9992 250.1129 0000382 269.3793 90.7014 15.27598682 54656
Epoch: Nov 4, 2025 • Age: 6 hours

当前状态

高度 482.3 km
速度 7.63 km/s
星下点 3.72°N, 76.85°W
发射日期 Nov 21, 2024
运行时间 0.9 years
类型 internet

技术详情

分类 Payload
质量 730.00 kg
干质量 700.00 kg
总质量 730.00 kg
长度 0.30 m
直径 4.10 m
跨度 29.00 m
形状 Box + pan
制造商 SPXS
平台类型 Starlink V2M
阶段状态 In Orbit
所有者/国家 SPXS/US

大型星座

Loading constellations...